Regional Weather Roundup
Issued by NWS Cleveland, OH

Home | Current Version | Previous Version | Graphics & Text | Print | Product List | Glossary On
Versions: 1 2 3 4 5 6 7 8 9 10 11 12 13 14 15 16 17 18 19 20 21 22 23 24 25 26 27 28 29 30 31 32 33 34 35 36 37 38 39 40 41 42 43 44 45 46 47 48 49 50
000
ASUS41 KCLE 281600
RWRCLE
OHIO REGIONAL WEATHER ROUNDUP
NATIONAL WEATHER SERVICE WILMINGTON, OH
1200 PM EDT SAT MAR 28 2015

NOTE: "FAIR" INDICATES FEW OR NO CLOUDS BELOW 12,000 FEET WITH NO
SIGNIFICANT WEATHER AND/OR OBSTRUCTIONS TO VISIBILITY.

OHZ001>008-015>018-024>027-034-035-043-044-281700-
   NORTHWEST OHIO

CITY           SKY/WX    TMP DP  RH WIND       PRES   REMARKS
DEFIANCE       MOSUNNY   29  11  47 N10G17    30.31S WCI  20
FINDLAY        PTSUNNY   28  10  46 NE16      30.28R WCI  16
TOLEDO EXPRESS MOSUNNY   27   9  46 N9G22     30.29S WCI  18
TOLEDO EXEC    PTSUNNY   26   9  48 N8        30.31R WCI  18
LIMA           CLOUDY    26  11  52 N8        30.28R WCI  18
$$

OHZ009>014-019>023-028>033-038-089-281700-
   NORTHEAST OHIO

CITY           SKY/WX    TMP DP  RH WIND       PRES   REMARKS
CLE-HOPKINS    MOSUNNY   21   8  57 N14       30.28R WCI   8
CLE-LAKEFRONT  MOSUNNY   22   9  57 N13       30.26S WCI  10
CUY CO. ARPT   PTSUNNY   23  12  63 N14G23    30.24R WCI  11
LORAIN-ELYRIA  SUNNY     21  10  62 N15       30.26R WCI   8
ASHTABULA      CLOUDY    19   8  62 N9        30.21R WCI   8
AKRON-CANTON   MOSUNNY   24   8  50 N15       30.18R WCI  11
WOOSTER        NOT AVBL
MANSFIELD      FLURRIES  20  10  65 N15       30.22R WCI   6
YOUNGSTOWN     CLOUDY    20   8  60 NW10      30.17R WCI   9
$$

OHZ042-051>053-060>062-070>072-077>081-281700-
  SOUTHWEST OHIO

CITY           SKY/WX    TMP DP  RH WIND       PRES   REMARKS
CINC-COVINGTON MOSUNNY   30  13  49 NE9       30.27S WCI  22
CINC-LUNKEN    MOSUNNY   31  13  47 VRB5      30.31S WCI  26
HAMILTON       PTSUNNY   28  12  51 N9        30.31S WCI  19
DAYTON         NOT AVBL
WRIGHT-PAT AFB NOT AVBL
DAYTON GENERAL SUNNY     28   9  44 N9G17     30.27R WCI  19
WILMINGTON     MOSUNNY   26   9  48 N10       30.26S WCI  16
$$

OHZ036-037-039>041-045>050-054>059-063>069-073>076-082>088-281700-
  CENTRAL AND SOUTHEAST OHIO

CITY           SKY/WX    TMP DP  RH WIND       PRES   REMARKS
COLUMBUS       MOSUNNY   27   9  46 N14G20    30.27R WCI  16
OSU AIRPORT    FAIR      26   8  46 N13       30.26R WCI  15
BOLTON FIELD   PTSUNNY   25   9  50 N7G16     30.27R WCI  17
RICKENBACK AFB NOT AVBL
NEWARK         PTSUNNY   25  10  53 NE9       30.25R WCI  15
MARION         PTSUNNY   24  10  55 N10       30.26S WCI  14
LANCASTER      CLOUDY    25  10  53 N9        30.27R WCI  15
ZANESVILLE     CLOUDY    24  12  60 NW15      30.23S WCI  11
NEW PHILLY     MOSUNNY   26   6  42 NW14G22   30.21S WCI  14
$$



USA.gov is the U.S. government's official web portal to all federal, state and local government web resources and services.